Location: Ambatotampy
(18.8181°S, 47.6186°E)
Time: 23:32:44
(UTC+00:00)

FENGYUN 3A - Pass Details

Date: 21 January 2021
Orbit: 824 x 836 km, 98.4° (Epoch: 24 February)

Event Time Altitude Azimuth Distance (km) Brightness Sun altitude
Exits shadow 01:05:22 22° 343° (NNW) 1,757 5.0 -18.7°
Maximum altitude 01:08:37 46° 280° (W) 1,110 3.9 -18.0°
Drops below altitude 10° 01:13:50 10° 208° (SSW) 2,459 6.1 -16.9°
Sets 01:16:18 0° 201° (SSW) 3,400 6.9 -16.4°
